Regional Weather Roundup
Issued by NWS

Home | Current Version | Previous Version | Text Only | Print | Product List | Glossary On
Versions: 1 2 3 4 5 6 7 8 9 10 11 12 13 14 15 16 17 18 19 20 21 22 23 24 25 26 27 28 29 30 31 32 33 34 35 36 37 38 39 40 41 42 43 44 45 46 47 48 49 50
000
ASUS44 KFWD 260115
RWRTX
NORTH TEXAS HOURLY WEATHER ROUNDUP
NATIONAL WEATHER SERVICE FORT WORTH TX
700 PM CST THU DEC 25 2014

NOTE: "FAIR" INDICATES FEW OR NO CLOUDS BELOW 12,000 FEET WITH NO
SIGNIFICANT WEATHER AND/OR OBSTRUCTIONS TO VISIBILITY.

TXZ118-119-260200-
DALLAS/FORT WORTH METROPLEX

CITY           SKY/WX    TMP DP  RH WIND       PRES   REMARKS
DFW AIRPORT    PTCLDY    55  32  41 S15       29.91F
DALLAS LOVE    PTCLDY    56  33  42 S15       29.94R
FTW MEACHAM    PTCLDY    56  31  38 S16       29.90S
DAL-EXECUTIVE  CLEAR     57  32  38 S12       29.92F
FTW-ALLIANCE   MOCLDY    55  29  36 S14       29.89S
FTW-SPINKS     CLEAR     55  30  38 SE16      29.93F
ARLINGTON      CLEAR     56  31  38 SE14      29.92F
ADDISON        PTCLDY    57  30  35 S13G24    29.94S
MESQUITE       CLEAR     55  32  41 SE9       29.96R
LANCASTER      CLEAR     53  33  47 S8        29.96S
$$

TXZ091>094-102>105-117-120-121-131>134-260200-
NORTH CENTRAL TEXAS

CITY           SKY/WX    TMP DP  RH WIND       PRES   REMARKS
SHRMAN/DENISON MOCLDY    53  33  47 S14       29.92S
GAINESVILLE    MOCLDY    53  29  39 S15G22    29.90S
BOWIE          MOCLDY    54  29  38 SE15G23   29.85R
BRIDGEPORT     MOCLDY    53  31  43 SE6       29.90R
DECATUR        MOCLDY    54  28  36 S17       29.89R
DENTON         PTCLDY    54  29  38 S15       29.90S
MCKINNEY       CLEAR     52  32  46 S12       29.93S
GREENVILLE     CLEAR     48  32  53 SE7       29.97R
ROCKWALL       CLEAR     53  35  50 S7        29.94S
TERRELL        CLEAR     52  37  56 S7        29.97R
WAXAHACHIE     CLEAR     53  36  53 S9        29.96R
CLEBURNE       CLEAR     54  30  40 SE14      29.93F
GRANBURY       PTCLDY    55  31  41 SE7       29.91S
$$

TXZ083>090-098>101-113>116-127>130-139>142-154-155-260200-
WESTERN NORTH TEXAS

CITY           SKY/WX    TMP DP  RH WIND       PRES   REMARKS
WICHITA FALLS  MOCLDY    52  28  39 S14       29.80R
WF-KICKAPOO    MOCLDY    52  27  38 SE8       29.82R
VERNON         CLOUDY    53  23  31 S10       29.79R
ABILENE        MOCLDY    56  25  30 S15       29.82R
ABILENE-DYESS  MOCLDY    56  27  32 S18G25    29.79S
BRECKENRIDGE   CLOUDY    59  24  26 S17G23    29.83R
GRAHAM         MOCLDY    55  30  38 SE10G17   29.83R
MINERAL WELLS  MOCLDY    54  28  36 SE14      29.86R
STEPHENVILLE   PTCLDY    53  28  37 S9        29.90S
COMANCHE       MOCLDY    53  31  42 S13       29.88S
BROWNWOOD      CLOUDY    55  27  33 SE13      29.87S
COLEMAN        CLOUDY    54  31  42 S13       29.86R
BRADY          CLEAR     57  28  33 SE13      29.87S
$$

TXZ143>147-156>162-174-175-260200-
CENTRAL TEXAS

CITY           SKY/WX    TMP DP  RH WIND       PRES   REMARKS
WACO           CLEAR     54  38  54 S15       29.96R
WACO-MCGREGOR  CLEAR     54  32  43 S12       29.97R
HILLSBORO      CLEAR     54  35  49 SE14      29.95S
CORSICANA      CLEAR     56  38  50 S12       29.99R
MEXIA          CLEAR     55  40  59 S9        29.97S
HEARNE         MOCLDY    54  44  67 SE9       30.01R
CAMERON        PTCLDY    56  41  56 SE7       29.97S
TEMPLE         PTCLDY    54  32  43 SE13      29.95R
KILLEEN        CLEAR     52  31  45 S10       29.95R
KILLEEN-SKYLRK CLEAR     55  28  35 SE13      29.94R
FORT HOOD      CLEAR     55  30  37 S13       29.94R
GATESVILLE     CLEAR     52  32  46 CALM      29.96R
HAMILTON       PTCLDY    54  28  36 S15G21    29.91F
$$

TXZ095>097-106>112-122>126-135>138-148>153-164>167-260200-
EAST TEXAS

CITY           SKY/WX    TMP DP  RH WIND       PRES   REMARKS
PARIS          CLEAR     48  30  49 SE10      29.98S
SULPHUR SPRNGS CLEAR     54  32  43 SE7       30.00R
MOUNT PLEASANT CLEAR     49  33  54 SE7       30.03R
MINEOLA        CLEAR     54  34  47 SE5       30.00S
TYLER          PTCLDY    56  38  50 S14       30.00R
LONGVIEW       PTCLDY    50  39  66 SE8       30.02R
MARSHALL       PTCLDY    53  40  60 SE3       30.06R
ATHENS         CLEAR     52  36  54 S7        29.99R
PALESTINE      MOCLDY    55  39  53 SE6       30.02R
JACKSONVILLE   MOCLDY    54  40  59 S9        30.03S
HENDERSON      PTCLDY    53  40  61 S8        30.04R
NACOGDOCHES      N/A    N/A N/A N/A MISG        N/A
LUFKIN         MOCLDY    55  43  63 SE8       30.05S
$$

SUPPLEMENTAL OBSERVATIONS (CENTRAL)

CITY           SKY/WX    TMP DP  RH WIND       PRES   REMARKS
LAKE TEXOMA      N/A     55  32  41 SE7         N/A
CADDO GRASSLND   N/A     52  30  43 S6G14       N/A
PAT MAYSE LAKE   N/A     54  30  40 SE10        N/A
ATHENS           N/A     55  36  47 SE8         N/A
LAKE LIMESTONE   N/A     55  39  54 S9          N/A
MCGREGOR         N/A     54  34  47 S8G17       N/A
$$

SUPPLEMENTAL OBSERVATIONS (WEST)

CITY           SKY/WX    TMP DP  RH WIND       PRES   REMARKS
MILLERS CREEK    N/A     54  30  40 S10         N/A
LBJ GRASSLAND    N/A     55  30  38 SE13        N/A
COMANCHE         N/A     54  28  37 S14         N/A
HAMBY            N/A     55  27  33 S14         N/A
IVIE RESERVOIR   N/A     55  27  33 SE12        N/A
COLORADO BEND    N/A     54  28  37 S9          N/A
$$

SUPPLEMENTAL OBSERVATIONS (EAST)

CITY           SKY/WX    TMP DP  RH WIND       PRES   REMARKS
CLARKSVILLE      N/A     50  30  46 SE5         N/A
CADDO LAKE       N/A     48  39  71 SE2         N/A
GILMER           N/A     52  36  54 SE3         N/A
HENDERSON        N/A     54  37  54 S8          N/A
LUFKIN           N/A     54  41  62 MISG        N/A
N SABINE NF      N/A     52  41  66 MISG        N/A
S SABINE NF      N/A     52  43  71 SE5         N/A
$$

SUPPLEMENTAL OBSERVATIONS ARE A COLLECTION OF AUTOMATED INSTRUMENTS
THAT ARE MAINTAINED BY A VARIETY OF FEDERAL AND STATE AGENCIES.
CERTAIN ELEMENTS...SUCH AS HUMIDITY VALUES AND SUSTAINED WIND
SPEEDS...MAY BE APPROXIMATED.



USA.gov is the U.S. government's official web portal to all federal, state and local government web resources and services.